This demonstration page uses our WeatherBlox Daily Observations layout. Learn more.

Left ArrowRight Arrow

39.29038, -76.61219

Hourly Observations for November 6, 2016

Temp ( °F °C ) Dew Point ( °F °C ) Humidity (%) Winds ( mph kmh ) Pressure ( in mb ) Visibility ( mi km ) Precip ( " mm )
12:54 am 00:54 undefined 57 13.9 36 2.2 45 45 undefined N/A 30.24 1024 N/A 0.00 0.00
1:54 am 01:54 undefined 54 12.2 36 2.2 51 51 undefined N/A 30.23 1024 N/A 0.00 0.00
1:54 am 01:54 undefined 54 12.2 36 2.2 51 51 undefined N/A 30.24 1024 N/A 0.00 0.00
2:54 am 02:54 undefined 54 12.2 36 2.2 51 51 undefined N/A 30.22 1024 N/A 0.00 0.00
3:54 am 03:54 undefined 53 11.7 36 2.2 52 52 undefined N/A 30.22 1023 N/A 0.00 0.00
4:54 am 04:54 undefined 53 11.7 36 2.2 52 52 undefined N/A 30.23 1024 N/A 0.00 0.00
5:54 am 05:54 undefined 51 10.6 37 2.8 59 59 undefined N/A 30.24 1024 N/A 0.00 0.00
6:54 am 06:54 undefined 52 11.1 37 2.8 57 57 undefined N/A 30.26 1025 N/A 0.00 0.00
7:54 am 07:54 undefined 53 11.7 38 3.3 57 57 undefined N/A 30.29 1026 N/A 0.00 0.00
8:54 am 08:54 undefined 57 13.9 40 4.4 53 53 undefined N/A 30.29 1026 N/A 0.00 0.00
9:54 am 09:54 undefined 61 16.1 39 3.9 44 44 undefined N/A 30.29 1026 N/A 0.00 0.00
10:54 am 10:54 undefined 63 17.2 33 0.6 33 33 undefined N/A 30.29 1026 N/A 0.00 0.00
11:54 am 11:54 undefined 64 17.8 31 -0.6 29 29 undefined N/A 30.28 1025 N/A 0.00 0.00
12:54 pm 12:54 undefined 65 18.3 28 -2.2 25 25 undefined N/A 30.27 1025 N/A 0.00 0.00
1:54 pm 13:54 undefined 65 18.3 27 -2.8 24 24 undefined N/A 30.26 1025 N/A 0.00 0.00
2:54 pm 14:54 undefined 65 18.3 26 -3.3 23 23 undefined N/A 30.27 1025 N/A 0.00 0.00
3:54 pm 15:54 undefined 64 17.8 26 -3.3 24 24 undefined N/A 30.28 1025 N/A 0.00 0.00
4:54 pm 16:54 undefined 64 17.8 27 -2.8 25 25 undefined N/A 30.29 1026 N/A 0.00 0.00
5:54 pm 17:54 undefined 62 16.7 28 -2.2 28 28 undefined N/A 30.30 1026 N/A 0.00 0.00
6:54 pm 18:54 undefined 60 15.6 28 -2.2 30 30 undefined N/A 30.32 1027 N/A 0.00 0.00
7:54 pm 19:54 undefined 59 15 27 -2.8 29 29 undefined N/A 30.33 1027 N/A 0.00 0.00
8:54 pm 20:54 undefined 57 13.9 27 -2.8 32 32 undefined N/A 30.35 1028 N/A 0.00 0.00
9:54 pm 21:54 undefined 55 12.8 27 -2.8 34 34 undefined N/A 30.38 1029 N/A 0.00 0.00
10:54 pm 22:54 undefined 53 11.7 27 -2.8 37 37 undefined N/A 30.39 1029 N/A 0.00 0.00
11:54 pm 23:54 undefined 51 10.6 26 -3.3 38 38 undefined N/A 30.42 1030 N/A 0.00 0.00

Powered by AerisWeather